| time (UTC) | temp C | wind direction | speed KPH | gust KPH | rain 1hr cm | rain 24hr cm | rain mn cm | humidity % | barometer mb |
| 20260504035022 | 20 | 223 | 1.6 | 4.8 | 0.00 | 0.00 | 0.00 | 70 | 1124.3 |
| 20260504034520 | 20 | 184 | 3.2 | 3.2 | 0.00 | 0.00 | 0.00 | 70 | 1124.5 |
| 20260504034017 | 20 | 103 | 3.2 | 4.8 | 0.00 | 0.00 | 0.00 | 70 | 1124.4 |
| 20260504033515 | 20 | 75 | 8.0 | 9.7 | 0.00 | 0.00 | 0.00 | 68 | 1123.9 |
| 20260504033012 | 20 | 29 | 4.8 | 11.3 | 0.00 | 0.00 | 0.00 | 68 | 1123.9 |
| 20260504032509 | 20 | 67 | 3.2 | 9.7 | 0.00 | 0.00 | 0.00 | 65 | 1124.1 |
| 20260504032005 | 20 | 30 | 3.2 | 3.2 | 0.00 | 0.00 | 0.00 | 65 | 1124.2 |
| 20260504031502 | 20 | 35 | 3.2 | 4.8 | 0.00 | 0.00 | 0.00 | 64 | 1124.2 |
| 20260504030959 | 20 | 25 | 4.8 | 8.0 | 0.00 | 0.00 | 0.00 | 65 | 1123.8 |
| 20260504030456 | 20 | 89 | 1.6 | 3.2 | 0.00 | 0.00 | 0.00 | 65 | 1123.6 |
| 20260504025952 | 20 | 67 | 1.6 | 3.2 | 0.00 | 0.00 | 0.00 | 65 | 1123.7 |
| 20260504025449 | 20 | 68 | 3.2 | 4.8 | 0.00 | 0.00 | 0.00 | 65 | 1123.4 |
| 20260504024946 | 20 | 7 | 1.6 | 4.8 | 0.00 | 0.00 | 0.00 | 65 | 1123.2 |
| 20260504024443 | 20 | 105 | 3.2 | 11.3 | 0.00 | 0.00 | 0.00 | 64 | 1123.0 |
| 20260504023940 | 20 | 84 | 3.2 | 9.7 | 0.00 | 0.00 | 0.00 | 64 | 1123.2 |
| 20260504023436 | 20 | 95 | 6.4 | 9.7 | 0.00 | 0.00 | 0.00 | 63 | 1123.2 |
| 20260504022932 | 20 | 84 | 6.4 | 8.0 | 0.00 | 0.00 | 0.00 | 63 | 1123.1 |
| 20260504022429 | 21 | 18 | 8.0 | 12.9 | 0.00 | 0.00 | 0.00 | 63 | 1122.8 |
| 20260504021925 | 21 | 59 | 3.2 | 8.0 | 0.00 | 0.00 | 0.00 | 63 | 1122.7 |
| 20260504021423 | 21 | 102 | 3.2 | 8.0 | 0.00 | 0.00 | 0.00 | 63 | 1123.0 |
| 20260504020920 | 21 | 100 | 6.4 | 9.7 | 0.00 | 0.00 | 0.00 | 63 | 1122.9 |
| 20260504020416 | 21 | 334 | 3.2 | 9.7 | 0.00 | 0.00 | 0.00 | 63 | 1122.8 |
| 20260504015913 | 21 | 85 | 3.2 | 9.7 | 0.00 | 0.00 | 0.00 | 63 | 1122.7 |
| 20260504015409 | 21 | 84 | 8.0 | 11.3 | 0.00 | 0.00 | 0.00 | 63 | 1122.2 |
| 20260504014906 | 21 | 99 | 8.0 | 14.5 | 0.00 | 0.00 | 0.00 | 63 | 1122.4 |
| 20260504014402 | 21 | 53 | 4.8 | 8.0 | 0.00 | 0.00 | 0.00 | 64 | 1122.4 |
| 20260504013859 | 21 | 32 | 4.8 | 14.5 | 0.00 | 0.00 | 0.00 | 64 | 1122.4 |
| 20260504013357 | 21 | 8 | 4.8 | 8.0 | 0.00 | 0.00 | 0.00 | 64 | 1122.0 |
| 20260504012853 | 21 | 33 | 4.8 | 11.3 | 0.00 | 0.00 | 0.00 | 64 | 1122.0 |
| 20260504012351 | 21 | 346 | 4.8 | 8.0 | 0.00 | 0.00 | 0.00 | 64 | 1121.8 |
| 20260504011848 | 21 | 61 | 4.8 | 8.0 | 0.00 | 0.00 | 0.00 | 63 | 1122.0 |
| 20260504011344 | 21 | 192 | 1.6 | 4.8 | 0.00 | 0.00 | 0.00 | 63 | 1122.1 |
| 20260504010841 | 21 | 133 | 0.0 | 4.8 | 0.00 | 0.00 | 0.00 | 63 | 1122.0 |
| 20260504010336 | 21 | 167 | 1.6 | 4.8 | 0.00 | 0.00 | 0.00 | 63 | 1122.1 |
| 20260504005833 | 21 | 212 | 1.6 | 3.2 | 0.00 | 0.00 | 0.00 | 63 | 1121.8 |
| 20260504005330 | 22 | 87 | 1.6 | 4.8 | 0.00 | 0.00 | 0.00 | 61 | 1121.6 |
| 20260504004827 | 22 | 102 | 1.6 | 4.8 | 0.00 | 0.00 | 0.00 | 60 | 1121.8 |
| 20260504004325 | 22 | 240 | 1.6 | 1.6 | 0.00 | 0.00 | 0.00 | 59 | 1121.8 |
| 20260504003821 | 22 | 273 | 0.0 | 1.6 | 0.00 | 0.00 | 0.00 | 59 | 1121.7 |
| 20260504003318 | 22 | 251 | 0.0 | 1.6 | 0.00 | 0.00 | 0.00 | 58 | 1121.6 |
| 20260504002815 | 22 | 42 | 4.8 | 9.7 | 0.00 | 0.00 | 0.00 | 58 | 1121.6 |
| 20260504002312 | 22 | 208 | 4.8 | 9.7 | 0.00 | 0.00 | 0.00 | 53 | 1121.7 |
| 20260504001809 | 22 | 304 | 3.2 | 4.8 | 0.00 | 0.00 | 0.00 | 53 | 1121.5 |
| 20260504001306 | 22 | 224 | 1.6 | 4.8 | 0.00 | 0.00 | 0.00 | 52 | 1121.3 |
| 20260504000803 | 22 | 226 | 1.6 | 4.8 | 0.00 | 0.00 | 0.00 | 53 | 1121.2 |
| 20260504000300 | 22 | 85 | 3.2 | 8.0 | 0.00 | 0.00 | 0.00 | 53 | 1121.2 |
| 20260503235758 | 22 | 95 | 4.8 | 8.0 | 0.00 | 0.00 | 0.00 | 53 | 1121.6 |
| 20260503235255 | 22 | 157 | 8.0 | 11.3 | 0.00 | 0.00 | 0.00 | 52 | 1121.3 |
| 20260503234753 | 23 | 108 | 4.8 | 11.3 | 0.00 | 0.00 | 0.00 | 51 | 1121.3 |
| 20260503234251 | 24 | 228 | 3.2 | 8.0 | 0.00 | 0.00 | 0.00 | 51 | 1121.2 |
| 20260503233747 | 24 | 230 | 3.2 | 8.0 | 0.00 | 0.00 | 0.00 | 50 | 1121.0 |
| 20260503233243 | 25 | 277 | 4.8 | 14.5 | 0.00 | 0.00 | 0.00 | 50 | 1121.0 |
| 20260503232740 | 25 | 265 | 8.0 | 11.3 | 0.00 | 0.00 | 0.00 | 48 | 1120.8 |
| 20260503232238 | 26 | 221 | 6.4 | 12.9 | 0.00 | 0.00 | 0.00 | 47 | 1120.7 |
| 20260503231736 | 26 | 270 | 6.4 | 11.3 | 0.00 | 0.00 | 0.00 | 46 | 1120.3 |
| 20260503231232 | 27 | 281 | 3.2 | 9.7 | 0.00 | 0.00 | 0.00 | 44 | 1120.2 |
| 20260503230728 | 27 | 81 | 4.8 | 9.7 | 0.00 | 0.00 | 0.00 | 44 | 1120.1 |
| 20260503230226 | 27 | 224 | 4.8 | 8.0 | 0.00 | 0.00 | 0.00 | 44 | 1120.2 |
| 20260503225718 | 26 | 257 | 4.8 | 9.7 | 0.00 | 0.00 | 0.00 | 46 | 1120.1 |
| 20260503225217 | 26 | 253 | 4.8 | 8.0 | 0.00 | 0.00 | 0.00 | 46 | 1120.2 |
| 20260503224715 | 27 | 185 | 6.4 | 11.3 | 0.00 | 0.00 | 0.00 | 46 | 1120.4 |
| 20260503224212 | 27 | 226 | 1.6 | 11.3 | 0.00 | 0.00 | 0.00 | 44 | 1120.5 |
| 20260503223710 | 26 | 232 | 3.2 | 12.9 | 0.00 | 0.00 | 0.00 | 44 | 1120.4 |
| 20260503223207 | 26 | 220 | 6.4 | 8.0 | 0.00 | 0.00 | 0.00 | 45 | 1120.5 |
| 20260503222703 | 26 | 203 | 8.0 | 9.7 | 0.00 | 0.00 | 0.00 | 45 | 1120.3 |
| 20260503222201 | 26 | 207 | 8.0 | 9.7 | 0.00 | 0.00 | 0.00 | 44 | 1120.4 |
| 20260503221659 | 26 | 231 | 3.2 | 12.9 | 0.00 | 0.00 | 0.00 | 45 | 1120.2 |
| 20260503221156 | 26 | 209 | 8.0 | 12.9 | 0.00 | 0.00 | 0.00 | 44 | 1120.2 |
| 20260503220653 | 26 | 209 | 6.4 | 9.7 | 0.00 | 0.00 | 0.00 | 43 | 1120.5 |
| 20260503220149 | 26 | 232 | 3.2 | 4.8 | 0.00 | 0.00 | 0.00 | 44 | 1120.4 |
| 20260503215647 | 26 | 202 | 3.2 | 11.3 | 0.00 | 0.00 | 0.00 | 44 | 1120.4 |
| 20260503215143 | 26 | 210 | 6.4 | 11.3 | 0.00 | 0.00 | 0.00 | 44 | 1120.4 |
| 20260503214642 | 27 | 194 | 4.8 | 8.0 | 0.00 | 0.00 | 0.00 | 42 | 1120.7 |
| 20260503214138 | 27 | 183 | 4.8 | 9.7 | 0.00 | 0.00 | 0.00 | 43 | 1120.5 |
| 20260503213632 | 27 | 232 | 4.8 | 9.7 | 0.00 | 0.00 | 0.00 | 42 | 1120.5 |
| 20260503213128 | 27 | 273 | 3.2 | 9.7 | 0.00 | 0.00 | 0.00 | 41 | 1120.5 |
| 20260503212625 | 28 | 251 | 8.0 | 11.3 | 0.00 | 0.00 | 0.00 | 41 | 1120.8 |
| 20260503212123 | 27 | 213 | 6.4 | 11.3 | 0.00 | 0.00 | 0.00 | 41 | 1120.5 |
| 20260503211620 | 28 | 213 | 4.8 | 11.3 | 0.00 | 0.00 | 0.00 | 42 | 1120.8 |
| 20260503211116 | 27 | 264 | 4.8 | 11.3 | 0.00 | 0.00 | 0.00 | 43 | 1120.8 |
| 20260503210612 | 27 | 216 | 6.4 | 9.7 | 0.00 | 0.00 | 0.00 | 42 | 1121.2 |
| 20260503210109 | 27 | 282 | 6.4 | 11.3 | 0.00 | 0.00 | 0.00 | 42 | 1121.2 |
| 20260503205605 | 27 | 275 | 4.8 | 8.0 | 0.00 | 0.00 | 0.00 | 42 | 1121.1 |
| 20260503205101 | 27 | 172 | 3.2 | 8.0 | 0.00 | 0.00 | 0.00 | 42 | 1121.3 |
| 20260503204558 | 27 | 79 | 6.4 | 9.7 | 0.00 | 0.00 | 0.00 | 42 | 1121.3 |
| 20260503204055 | 28 | 135 | 1.6 | 9.7 | 0.00 | 0.00 | 0.00 | 42 | 1121.1 |
| 20260503203552 | 27 | 91 | 1.6 | 3.2 | 0.00 | 0.00 | 0.00 | 44 | 1121.5 |
| 20260503203049 | 26 | 201 | 1.6 | 9.7 | 0.00 | 0.00 | 0.00 | 45 | 1121.7 |
| 20260503202547 | 26 | 241 | 3.2 | 8.0 | 0.00 | 0.00 | 0.00 | 45 | 1121.9 |
| 20260503202045 | 26 | 243 | 6.4 | 14.5 | 0.00 | 0.00 | 0.00 | 46 | 1121.9 |
| 20260503201543 | 25 | 218 | 4.8 | 9.7 | 0.00 | 0.00 | 0.00 | 47 | 1121.9 |
| 20260503201040 | 25 | 215 | 3.2 | 4.8 | 0.00 | 0.00 | 0.00 | 48 | 1122.0 |
| 20260503200536 | 25 | 256 | 6.4 | 12.9 | 0.00 | 0.00 | 0.00 | 48 | 1122.1 |
| 20260503200033 | 26 | 211 | 4.8 | 9.7 | 0.00 | 0.00 | 0.00 | 47 | 1122.2 |
| 20260503195530 | 26 | 251 | 1.6 | 8.0 | 0.00 | 0.00 | 0.00 | 47 | 1122.5 |
| 20260503195027 | 25 | 219 | 1.6 | 8.0 | 0.00 | 0.00 | 0.00 | 48 | 1122.4 |
| 20260503194525 | 26 | 209 | 9.7 | 12.9 | 0.00 | 0.00 | 0.00 | 47 | 1122.4 |
| 20260503194024 | 26 | 176 | 1.6 | 4.8 | 0.00 | 0.00 | 0.00 | 46 | 1122.6 |
| 20260503193521 | 25 | 214 | 1.6 | 4.8 | 0.00 | 0.00 | 0.00 | 47 | 1122.8 |
| 20260503193016 | 26 | 173 | 4.8 | 8.0 | 0.00 | 0.00 | 0.00 | 47 | 1122.7 |
| 20260503192512 | 25 | 98 | 3.2 | 8.0 | 0.00 | 0.00 | 0.00 | 48 | 1122.8 |
| 20260503192008 | 25 | 180 | 8.0 | 14.5 | 0.00 | 0.00 | 0.00 | 48 | 1122.7 |
| 20260503191505 | 25 | 238 | 4.8 | 9.7 | 0.00 | 0.00 | 0.00 | 48 | 1122.9 |
| 20260503191002 | 26 | 214 | 9.7 | 14.5 | 0.00 | 0.00 | 0.00 | 48 | 1123.0 |
| 20260503190459 | 26 | 168 | 3.2 | 8.0 | 0.00 | 0.00 | 0.00 | 47 | 1123.0 |
| 20260503185956 | 27 | 70 | 6.4 | 12.9 | 0.00 | 0.00 | 0.00 | 44 | 1123.0 |
| 20260503185452 | 27 | 116 | 1.6 | 4.8 | 0.00 | 0.00 | 0.00 | 43 | 1122.9 |
| 20260503184952 | 26 | 221 | 1.6 | 4.8 | 0.00 | 0.00 | 0.00 | 47 | 1123.4 |
| 20260503184448 | 26 | 232 | 1.6 | 3.2 | 0.00 | 0.00 | 0.00 | 45 | 1123.3 |
| 20260503183945 | 26 | 205 | 3.2 | 8.0 | 0.00 | 0.00 | 0.00 | 47 | 1123.5 |
| 20260503183441 | 26 | 135 | 6.4 | 11.3 | 0.00 | 0.00 | 0.00 | 47 | 1123.4 |
| 20260503182938 | 26 | 196 | 6.4 | 12.9 | 0.00 | 0.00 | 0.00 | 48 | 1123.6 |
| 20260503182437 | 26 | 70 | 6.4 | 14.5 | 0.00 | 0.00 | 0.00 | 49 | 1123.7 |
| 20260503181934 | 25 | 157 | 8.0 | 11.3 | 0.00 | 0.00 | 0.00 | 49 | 1123.8 |
| 20260503181432 | 26 | 89 | 1.6 | 3.2 | 0.00 | 0.00 | 0.00 | 48 | 1123.5 |
| 20260503180927 | 26 | 2 | 3.2 | 4.8 | 0.00 | 0.00 | 0.00 | 47 | 1123.8 |
| 20260503180427 | 26 | 157 | 3.2 | 8.0 | 0.00 | 0.00 | 0.00 | 47 | 1124.1 |
| 20260503175922 | 26 | 190 | 3.2 | 8.0 | 0.00 | 0.00 | 0.00 | 48 | 1124.2 |
| 20260503175421 | 26 | 72 | 11.3 | 14.5 | 0.00 | 0.00 | 0.00 | 48 | 1123.9 |
| 20260503174916 | 26 | 41 | 8.0 | 12.9 | 0.00 | 0.00 | 0.00 | 49 | 1124.1 |
| 20260503174414 | 26 | 181 | 3.2 | 4.8 | 0.00 | 0.00 | 0.00 | 49 | 1124.3 |
| 20260503173908 | 25 | 204 | 1.6 | 3.2 | 0.00 | 0.00 | 0.00 | 51 | 1124.4 |
| 20260503173405 | 25 | 226 | 1.6 | 4.8 | 0.00 | 0.00 | 0.00 | 51 | 1124.3 |
| 20260503172901 | 24 | 198 | 1.6 | 8.0 | 0.00 | 0.00 | 0.00 | 53 | 1124.3 |
| 20260503172359 | 24 | 262 | 3.2 | 9.7 | 0.00 | 0.00 | 0.00 | 52 | 1124.5 |
| 20260503171855 | 25 | 231 | 3.2 | 4.8 | 0.00 | 0.00 | 0.00 | 52 | 1124.5 |
| 20260503171352 | 25 | 253 | 3.2 | 3.2 | 0.00 | 0.00 | 0.00 | 51 | 1124.6 |
| 20260503170850 | 25 | 259 | 1.6 | 1.6 | 0.00 | 0.00 | 0.00 | 52 | 1124.8 |
| 20260503170346 | 25 | 126 | 0.0 | 3.2 | 0.00 | 0.00 | 0.00 | 52 | 1124.7 |
| 20260503150738 | 20 | 43 | 3.2 | 11.3 | 0.00 | 0.00 | 0.00 | 66 | 1125.2 |
| 20260503150234 | 19 | 105 | 3.2 | 8.0 | 0.00 | 0.00 | 0.00 | 68 | 1125.0 |
| 20260503140158 | 18 | 76 | 4.8 | 8.0 | 0.00 | 0.00 | 0.00 | 71 | 1124.5 |
| 20260503131129 | 18 | 96 | 1.6 | 3.2 | 0.00 | 0.00 | 0.00 | 71 | 1123.6 |
| 20260503130626 | 18 | 33 | 3.2 | 3.2 | 0.00 | 0.00 | 0.00 | 71 | 1123.6 |
| 20260503130124 | 18 | 358 | 1.6 | 4.8 | 0.00 | 0.00 | 0.00 | 71 | 1123.5 |
| 20260503110516 | 17 | 17 | 6.4 | 8.0 | 0.00 | 0.00 | 0.00 | 71 | 1122.7 |
| 20260503090408 | 18 | 13 | 4.8 | 11.3 | 0.00 | 0.00 | 0.00 | 71 | 1123.1 |
| 20260503081335 | 18 | 36 | 4.8 | 8.0 | 0.00 | 0.00 | 0.00 | 68 | 1123.3 |
| 20260503080831 | 18 | 355 | 3.2 | 4.8 | 0.00 | 0.00 | 0.00 | 69 | 1123.5 |
| 20260503080328 | 18 | 73 | 4.8 | 9.7 | 0.00 | 0.00 | 0.00 | 68 | 1123.2 |
| 20260503072759 | 18 | 33 | 3.2 | 8.0 | 0.00 | 0.00 | 0.00 | 68 | 1123.4 |
| 20260503072256 | 18 | 94 | 6.4 | 8.0 | 0.00 | 0.00 | 0.00 | 68 | 1123.2 |
| 20260503071752 | 18 | 13 | 4.8 | 9.7 | 0.00 | 0.00 | 0.00 | 68 | 1123.4 |
| 20260503071249 | 18 | 107 | 1.6 | 4.8 | 0.00 | 0.00 | 0.00 | 68 | 1123.3 |
| 20260503070745 | 18 | 159 | 3.2 | 8.0 | 0.00 | 0.00 | 0.00 | 68 | 1123.5 |
| 20260503070244 | 18 | 121 | 1.6 | 9.7 | 0.00 | 0.00 | 0.00 | 68 | 1123.3 |
| 20260503060214 | 18 | 72 | 6.4 | 11.3 | 0.00 | 0.00 | 0.00 | 69 | 1123.6 |
| 20260503054701 | 18 | 66 | 4.8 | 8.0 | 0.00 | 0.00 | 0.00 | 69 | 1123.5 |
| 20260503054159 | 18 | 51 | 4.8 | 9.7 | 0.00 | 0.00 | 0.00 | 69 | 1123.5 |
| 20260503053656 | 18 | 55 | 6.4 | 11.3 | 0.00 | 0.00 | 0.00 | 69 | 1123.2 |
| 20260503053155 | 19 | 128 | 4.8 | 8.0 | 0.00 | 0.00 | 0.00 | 69 | 1123.2 |
| 20260503052651 | 19 | 150 | 4.8 | 4.8 | 0.00 | 0.00 | 0.00 | 68 | 1123.0 |
| 20260503052147 | 19 | 213 | 0.0 | 1.6 | 0.00 | 0.00 | 0.00 | 66 | 1123.1 |
| 20260503051642 | 19 | 245 | 0.0 | 1.6 | 0.00 | 0.00 | 0.00 | 67 | 1123.3 |
| 20260503051141 | 19 | 246 | 0.0 | 0.0 | 0.00 | 0.00 | 0.00 | 67 | 1123.2 |
| 20260503050637 | 19 | 254 | 0.0 | 0.0 | 0.00 | 0.00 | 0.00 | 66 | 1123.3 |
| 20260503050134 | 19 | 321 | 1.6 | 1.6 | 0.00 | 0.00 | 0.00 | 66 | 1123.2 |
| 20260503045631 | 19 | 265 | 0.0 | 1.6 | 0.00 | 0.00 | 0.00 | 67 | 1123.1 |
| 20260503045128 | 19 | 274 | 0.0 | 1.6 | 0.00 | 0.00 | 0.00 | 66 | 1122.9 |
| 20260503044625 | 19 | 271 | 1.6 | 1.6 | 0.00 | 0.00 | 0.00 | 66 | 1123.0 |
| 20260503044122 | 19 | 356 | 1.6 | 3.2 | 0.00 | 0.00 | 0.00 | 66 | 1123.1 |
| 20260503043619 | 19 | 351 | 1.6 | 3.2 | 0.00 | 0.00 | 0.00 | 66 | 1123.4 |
| 20260503043116 | 20 | 57 | 1.6 | 9.7 | 0.00 | 0.00 | 0.00 | 66 | 1123.4 |
| 20260503042612 | 20 | 21 | 4.8 | 9.7 | 0.00 | 0.00 | 0.00 | 66 | 1123.2 |
| 20260503042108 | 20 | 41 | 1.6 | 3.2 | 0.00 | 0.00 | 0.00 | 66 | 1123.1 |
| 20260503041605 | 20 | 10 | 3.2 | 11.3 | 0.00 | 0.00 | 0.00 | 66 | 1123.2 |
| 20260503041103 | 20 | 342 | 1.6 | 4.8 | 0.00 | 0.00 | 0.00 | 66 | 1122.9 |
| 20260503040600 | 20 | 331 | 4.8 | 4.8 | 0.00 | 0.00 | 0.00 | 66 | 1123.1 |
| 20260503040057 | 20 | 268 | 0.0 | 1.6 | 0.00 | 0.00 | 0.00 | 66 | 1122.7 |
| 20260503035554 | 20 | 69 | 3.2 | 3.2 | 0.00 | 0.00 | 0.00 | 65 | 1122.9 |